Location: Les Jeannots
(43.2262°N, 5.5774°E)
Time: 08:33:21
(UTC+00:00)

Cosmos 1844 Rocket - Pass Details

Date: 05 July 2020
Orbit: 826 x 843 km, 71.0° (Epoch: 04 August)

Event Time Altitude Azimuth Distance (km) Brightness Sun altitude
Rises 21:06:36 0° 331° (NNW) 3,374 7.6 -15.0°
Reaches altitude 10° 21:09:04 10° 328° (NNW) 2,436 6.5 -15.3°
Maximum altitude 21:14:32 58° 251° (WSW) 960 3.1 -15.8°
Enters shadow 21:18:16 20° 178° (S) 1,808 3.9 -16.2°
